Regional Weather Roundup
Issued by NWS Kansas City/Pleasant Hill, MO

Home | Current Version | Previous Version | Text Only | Print | Product List | Glossary On
Versions: 1 2 3 4 5 6 7 8 9 10 11 12 13 14 15 16 17 18 19 20 21 22 23 24 25 26 27 28 29 30 31 32 33 34 35 36 37 38 39 40 41 42 43 44 45 46 47 48 49 50
308
ASUS43 KEAX 201710
RWREAX

WEATHER ROUNDUP FOR EASTERN KANSAS AND NORTHWEST MISSOURI
NATIONAL WEATHER SERVICE KANSAS CITY/PLEASANT HILL MO
1100 AM CST MON FEB 20 2017

KSZ040-057-103>105-MOZ028-029-037-043-201800-
...KANSAS CITY METROPOLITAN AREA...

CITY           SKY/WX    TMP DP  RH WIND       PRES   REMARKS
K.C. INTL      CLOUDY    61  58  90 S10       29.83R
K.C. DOWNTOWN  CLOUDY    63  58  83 S13       29.84R
LEES SUMMIT    CLOUDY    61  58  90 S12       29.84R
OLATHE - IXD   CLOUDY    61  57  87 S15       29.87R
OLATHE - OJC   CLOUDY    59  58  96 S13       29.85R
LAWRENCE       CLOUDY    64  58  80 S14G24    29.85R

$$

MOZ001>008-011>017-020>025-030>033-038>040-044>046-053-054-201800-
...NORTHERN AND CENTRAL MISSOURI...

CITY           SKY/WX    TMP DP  RH WIND       PRES   REMARKS
ST. JOSEPH     CLOUDY    62  59  90 S12       29.81R
WARRENSBURG    LGT RAIN  63  55  77 SE12      29.84F
WHITEMAN AFB   DRIZZLE   64  61  88 S18G25    29.85F
CLINTON        LGT RAIN  64  57  77 S15       29.87S
SEDALIA        CLOUDY    69  56  62 S23G33    29.88F
WARSAW         NOT AVBL
CHILLICOTHE      N/A     62  58  86 SE9       29.85S
KIRKSVILLE     CLOUDY    66  54  65 S14       29.89F

$$

MOZ041-047>049-056>058-063>065-088>090-097-201800-
...EASTERN AND SOUTHERN MISSOURI...

CITY           SKY/WX    TMP DP  RH WIND       PRES   REMARKS
ST. LOUIS INTL PTSUNNY   69  52  54 SE12      30.03S
SPIRIT OF STL  PTSUNNY   73  54  51 S17G24    30.00S
COLUMBIA       CLOUDY    70  51  51 S20G32    29.93S
JEFFERSON CITY CLOUDY    71  50  47 S12G24    29.93F
ROLLA          LGT RAIN  69  50  50 S22G30    29.97F
OSAGE BEACH    CLOUDY    70  55  59 S17G28    29.94F
SPRINGFIELD    CLOUDY    64  58  80 SE18G25   29.92F
BRANSON        LGT RAIN  64  59  82 S9G20     29.97F
JOPLIN         CLOUDY    65  61  87 S14       29.88F
WEST PLAINS    PTSUNNY   68  50  52 S17G30    30.03F

$$

IAZ060-094-KSZ022-034>040-054-083-096-NEZ052-066-093-201800-
...KANSAS...SOUTHEAST NEBRASKA AND IOWA...

CITY           SKY/WX    TMP DP  RH WIND       PRES   REMARKS
TOPEKA         CLOUDY    62  58  86 S7        29.82R
MANHATTAN      CLOUDY    61  57  87 S14       29.80S
EMPORIA        CLOUDY    60  57  89 S9        29.85R
CHANUTE        CLOUDY    62  57  83 SW13      29.90R
WICHITA        CLOUDY    57  54  89 S13       29.85R
OMAHA          CLOUDY    60  56  86 S16       29.72F FOG
LINCOLN        CLOUDY    61  57  87 S13       29.74S
FALLS CITY     CLOUDY    61  57  87 S12       29.80R
LAMONI         CLOUDY    58  56  93 S10G20    29.82F
DES MOINES     LGT RAIN  61  56  83 S10       29.81F

$$





USA.gov is the U.S. government's official web portal to all federal, state and local government web resources and services.